Weather History for KFXY - July, 2012

Change the Weather History Date:

Tuesday, July 24, 2012

  Actual Average (KMCW) Record (KMCW)
Temperature  
Mean Temperature 80 °F 72 °F  
Max Temperature 91 °F 83 °F 104 °F (1901)
Min Temperature 69 °F 61 °F 46 °F (1931)
Degree Days  
Heating Degree Days 0 0  
Month to date heating degree days 0  
Since 1 June heating degree days 44  
Since 1 July heating degree days 0  
Cooling Degree Days 15 7  
Month to date cooling degree days 170  
Year to date cooling degree days 343  
Since 1 June cooling degree days 308  
Growing Degree Days 30 (Base 50)    
Moisture  
Dew Point 64 °F    
Average Humidity 59    
Maximum Humidity 89    
Minimum Humidity 36    
Precipitation  
Precipitation 0.00 in 0.15 in 2.00 in (1986)
Month to date precipitation 3.68  
Year to date precipitation 21.30  
Snow  
Snow 0.00 in 0.00 in - ()
Month to date snowfall 0.0  
Since 1 June snowfall 0.0  
Since 1 July snowfall 0.0  
Snow Depth -    
Sea Level Pressure  
Sea Level Pressure 29.91 in    
Wind  
Wind Speed 9 mph (SE)    
Max Wind Speed 21 mph    
Max Gust Speed 25 mph    
Visibility 10 miles    
Events      
T = Trace of Precipitation, MM = Missing Value Source: NWS Daily Summary

Daily Weather History Graph

Daily Weather History Graph

Search for Another Location

Airport or City:

Trip Planner

Search our weather history database for the weather conditions in past years. The results will help you decide how hot, cold, wet, or windy it might be!

Date:

Astronomy

Jul. 24, 2012 Rise Set
Actual Time 5:57 AM CDT 8:44 PM CDT
Civil Twilight 5:23 AM CDT 9:17 PM CDT
Nautical Twilight 4:41 AM CDT 9:59 PM CDT
Astronomical Twilight 3:52 AM CDT 10:47 PM CDT
Moon 12:07 PM CDT (7/24) 11:19 PM CDT (7/24)
Length of Visible Light 15h 53m
Length of Day
14h 47m
Waxing Crescent, 32% of the Moon is Illuminated
Jul 24
Waxing Crescent
Jul 26
First Quarter
Aug 1
Full
Aug 9
Last Quarter
Aug 17
New

Hourly Weather History & Observations

Time (CDT) Temp. Heat Index Dew Point Humidity Pressure Visibility Wind Dir Wind Speed Gust Speed Precip Events Conditions
12:15 AM 78.8 °F - 73.4 °F 83% 29.94 in 10.0 mi SE 3.5 mph - N/A   Clear
12:35 AM 77.0 °F - 73.4 °F 89% 29.93 in 10.0 mi Calm Calm - N/A   Clear
12:55 AM 77.0 °F - 73.4 °F 89% 29.94 in 10.0 mi ENE 3.5 mph - N/A   Clear
1:15 AM 77.0 °F - 73.4 °F 89% 29.94 in 10.0 mi Calm Calm - N/A   Clear
1:35 AM 77.0 °F - 73.4 °F 89% 29.96 in 10.0 mi North 9.2 mph - N/A   Clear
1:55 AM 77.0 °F - 73.4 °F 89% 29.96 in 10.0 mi NE 5.8 mph - N/A   Clear
2:15 AM 77.0 °F - 71.6 °F 83% 29.96 in 10.0 mi NE 12.7 mph 18.4 mph N/A   Clear
2:35 AM 77.0 °F - 68.0 °F 74% 29.96 in 10.0 mi ENE 6.9 mph 18.4 mph N/A   Clear
2:55 AM 75.2 °F - 64.4 °F 69% 29.96 in 10.0 mi ENE 9.2 mph - N/A   Clear
3:15 AM 73.4 °F - 64.4 °F 73% 29.95 in 10.0 mi East 12.7 mph 18.4 mph N/A   Clear
3:35 AM 73.4 °F - 62.6 °F 69% 29.94 in 10.0 mi East 10.4 mph - N/A   Clear
3:55 AM 73.4 °F - 62.6 °F 69% 29.94 in 10.0 mi East 8.1 mph - N/A   Clear
4:15 AM 73.4 °F - 62.6 °F 69% 29.94 in 10.0 mi East 10.4 mph 18.4 mph N/A   Clear
4:35 AM 73.4 °F - 60.8 °F 65% 29.94 in 10.0 mi ESE 6.9 mph - N/A   Clear
4:55 AM 71.6 °F - 60.8 °F 69% 29.94 in 10.0 mi ESE 6.9 mph - N/A   Clear
5:15 AM 73.4 °F - 60.8 °F 65% 29.96 in 10.0 mi East 6.9 mph - N/A   Clear
5:35 AM 71.6 °F - 60.8 °F 69% 29.96 in 10.0 mi East 10.4 mph - N/A   Clear
5:55 AM 71.6 °F - 60.8 °F 69% 29.96 in 10.0 mi East 10.4 mph 17.3 mph N/A   Clear
6:15 AM 71.6 °F - 60.8 °F 69% 29.98 in 10.0 mi Calm Calm - N/A   Clear
6:55 AM 71.6 °F - 60.8 °F 69% 30.00 in 10.0 mi East 8.1 mph - N/A   Clear
7:15 AM 69.8 °F - 60.8 °F 73% 30.00 in 10.0 mi ESE 4.6 mph - N/A   Clear
7:35 AM 71.6 °F - 60.8 °F 69% 30.00 in 10.0 mi ESE 6.9 mph - N/A   Clear
7:55 AM 71.6 °F - 60.8 °F 69% 30.00 in 10.0 mi ESE 8.1 mph 17.3 mph N/A   Clear
8:15 AM 71.6 °F - 62.6 °F 73% 30.01 in 10.0 mi ESE 8.1 mph - N/A   Clear
8:35 AM 73.4 °F - 62.6 °F 69% 30.00 in 10.0 mi East 11.5 mph 18.4 mph N/A   Clear
8:55 AM 73.4 °F - 62.6 °F 69% 30.01 in 10.0 mi East 11.5 mph - N/A   Clear
9:15 AM 73.4 °F - 62.6 °F 69% 30.01 in 10.0 mi East 12.7 mph 17.3 mph N/A   Clear
10:15 AM 77.0 °F - 62.6 °F 61% 29.98 in 10.0 mi ESE 15.0 mph 20.7 mph N/A   Clear
10:55 AM 80.6 °F 82.3 °F 64.4 °F 58% 29.96 in 10.0 mi SE 15.0 mph 21.9 mph N/A   Clear
11:15 AM 80.6 °F 82.3 °F 64.4 °F 58% 29.96 in 10.0 mi SE 16.1 mph - N/A   Clear
11:35 AM 82.4 °F 83.9 °F 64.4 °F 54% 29.95 in 10.0 mi SSE 18.4 mph 23.0 mph N/A   Clear
11:55 AM 82.4 °F 83.4 °F 62.6 °F 51% 29.95 in 10.0 mi SE 19.6 mph 24.2 mph N/A   Clear
12:15 PM 84.2 °F 85.0 °F 62.6 °F 48% 29.94 in 10.0 mi SSE 20.7 mph - N/A   Clear
12:35 PM 86.0 °F 86.6 °F 62.6 °F 45% 29.93 in 10.0 mi SE 16.1 mph 23.0 mph N/A   Clear
12:55 PM 87.8 °F 88.5 °F 62.6 °F 43% 29.93 in 10.0 mi SSE 17.3 mph 23.0 mph N/A   Clear
1:35 PM 87.8 °F 87.6 °F 60.8 °F 40% 29.93 in 10.0 mi SE 18.4 mph 24.2 mph N/A   Clear
1:55 PM 89.6 °F 89.5 °F 60.8 °F 38% 29.92 in 10.0 mi SE 18.4 mph 25.3 mph N/A   Clear
2:15 PM 89.6 °F 89.5 °F 60.8 °F 38% 29.92 in 10.0 mi SE 17.3 mph 24.2 mph N/A   Clear
2:35 PM 89.6 °F 89.5 °F 60.8 °F 38% 29.91 in 10.0 mi SSE 17.3 mph 21.9 mph N/A   Clear
2:55 PM 89.6 °F 88.9 °F 59.0 °F 36% 29.91 in 10.0 mi SSE 18.4 mph 24.2 mph N/A   Clear
3:15 PM 89.6 °F 89.5 °F 60.8 °F 38% 29.90 in 10.0 mi SSE 15.0 mph 24.2 mph N/A   Clear
3:35 PM 89.6 °F 89.5 °F 60.8 °F 38% 29.89 in 10.0 mi SSE 16.1 mph 25.3 mph N/A   Clear
4:15 PM 91.4 °F 91.4 °F 60.8 °F 36% 29.88 in 10.0 mi SSE 16.1 mph 23.0 mph N/A   Clear
4:35 PM 91.4 °F 91.4 °F 60.8 °F 36% 29.87 in 10.0 mi SSE 19.6 mph - N/A   Clear
4:55 PM 89.6 °F 90.1 °F 62.6 °F 40% 29.86 in 10.0 mi SSE 16.1 mph 24.2 mph N/A   Clear
5:15 PM 87.8 °F 88.5 °F 62.6 °F 43% 29.86 in 10.0 mi SSE 10.4 mph 18.4 mph N/A   Clear
5:35 PM 87.8 °F 89.4 °F 64.4 °F 46% 29.86 in 10.0 mi SE 11.5 mph - N/A   Clear
5:55 PM 87.8 °F 89.4 °F 64.4 °F 46% 29.85 in 10.0 mi SSE 12.7 mph 19.6 mph N/A   Clear
6:15 PM 89.6 °F 90.1 °F 62.6 °F 40% 29.84 in 10.0 mi SSE 11.5 mph 17.3 mph N/A   Clear
6:35 PM 87.8 °F 89.4 °F 64.4 °F 46% 29.84 in 10.0 mi SE 8.1 mph - N/A   Clear
6:55 PM 87.8 °F 89.4 °F 64.4 °F 46% 29.84 in 10.0 mi SE 8.1 mph - N/A   Clear
7:15 PM 87.8 °F 89.4 °F 64.4 °F 46% 29.84 in 10.0 mi SE 8.1 mph - N/A   Clear
7:35 PM 87.8 °F 90.4 °F 66.2 °F 49% 29.83 in 10.0 mi SE 9.2 mph - N/A   Clear
7:55 PM 86.0 °F 88.2 °F 66.2 °F 51% 29.83 in 10.0 mi SSE 8.1 mph - N/A   Clear
8:15 PM 86.0 °F 89.4 °F 68.0 °F 55% 29.83 in 10.0 mi SE 6.9 mph - N/A   Clear
8:35 PM 84.2 °F 86.6 °F 66.2 °F 55% 29.83 in 10.0 mi SE 8.1 mph - N/A   Clear
8:55 PM 82.4 °F 84.6 °F 66.2 °F 58% 29.83 in 10.0 mi SE 8.1 mph - N/A   Clear
9:15 PM 80.6 °F 82.7 °F 66.2 °F 61% 29.83 in 10.0 mi SE 8.1 mph - N/A   Clear
9:35 PM 80.6 °F 82.3 °F 64.4 °F 58% 29.83 in 10.0 mi SE 9.2 mph - N/A   Clear
9:55 PM 80.6 °F 82.3 °F 64.4 °F 58% 29.83 in 10.0 mi SE 10.4 mph - N/A   Clear
10:15 PM 78.8 °F - 64.4 °F 61% 29.83 in 10.0 mi SE 8.1 mph - N/A   Clear
10:35 PM 78.8 °F - 64.4 °F 61% 29.83 in 10.0 mi SE 8.1 mph - N/A   Clear
10:55 PM 78.8 °F - 64.4 °F 61% 29.83 in 10.0 mi SE 9.2 mph - N/A   Clear
11:15 PM 78.8 °F - 64.4 °F 61% 29.83 in 10.0 mi SE 9.2 mph - N/A   Clear
11:35 PM 78.8 °F - 64.4 °F 61% 29.82 in 10.0 mi SE 9.2 mph - N/A   Clear
11:55 PM 77.0 °F - 64.4 °F 65% 29.82 in 10.0 mi SE 8.1 mph - N/A   Clear